Weather History for El Centro, CA

Change the Weather History Date:

Monday, October 31, 2011

  Actual Average Record
Temperature  
Mean Temperature 74 °F -  
Max Temperature 90 °F 80 °F 93 °F (2008)
Min Temperature 59 °F 55 °F 46 °F (2013)
Cooling Degree Days 10    
Growing Degree Days 24 (Base 50)    
Moisture  
Dew Point 37 °F    
Average Humidity 27    
Maximum Humidity 71    
Minimum Humidity 11    
Precipitation  
Precipitation 0.00 in - - ()
Sea Level Pressure  
Sea Level Pressure 29.95 in    
Wind  
Wind Speed 1 mph (West)    
Max Wind Speed 7 mph    
Max Gust Speed -    
Visibility 10 miles    
Events      
Averages and records for this station are not official NWS values.
T = Trace of Precipitation, MM = Missing Value Source: NWS Daily Summary

Daily Weather History Graph

Daily Weather History Graph

Search for Another Location

Airport:

Trip Planner

Search our weather history database for the weather conditions in past years. The results will help you decide how hot, cold, wet, or windy it might be!

Date:

Astronomy

Oct. 31, 2011 Rise Set
Actual Time 6:59 AM PDT 5:52 PM PDT
Civil Twilight 6:33 AM PDT 6:18 PM PDT
Nautical Twilight 6:04 AM PDT 6:47 PM PDT
Astronomical Twilight 5:36 AM PDT 7:15 PM PDT
Moon 12:03 PM PDT 10:38 PM PDT
Length of Visible Light 11h 44m
Length of Day
10h 53m
Waxing Crescent, 31% of the Moon is Illuminated
Oct 31
Waxing Crescent
Nov 2
First Quarter
Nov 10
Full
Nov 18
Last Quarter
Nov 24
New

Hourly Weather History & Observations

Time (PDT) Temp. Heat Index Dew Point Humidity Pressure Visibility Wind Dir Wind Speed Gust Speed Precip Events Conditions
12:56 AM - - - N/A% 30.01 in - North - - N/A   Unknown
1:56 AM - - - N/A% 30.01 in - North - - N/A   Unknown
2:56 AM - - - N/A% 30.00 in - North - - N/A   Unknown
3:56 AM - - - N/A% 29.98 in - North - - N/A   Unknown
4:56 AM - - - N/A% 29.98 in - North - - N/A   Unknown
5:56 AM 61.0 °F - 39.9 °F 46% 29.98 in 10.0 mi Calm Calm - N/A   Clear
6:56 AM 59.7 °F - 16.9 °F 19% 29.98 in 10.0 mi Calm Calm - N/A   Clear
7:56 AM 68.2 °F - 24.1 °F 19% 30.00 in 10.0 mi Calm Calm - N/A   Clear
8:56 AM 68.2 °F - 24.1 °F 19% 30.01 in 10.0 mi Calm Calm - N/A   Clear
9:56 AM 75.0 °F - 25.7 °F 16% 30.01 in 10.0 mi Calm Calm - N/A   Clear
10:56 AM 78.1 °F - 31.1 °F 18% 30.01 in 10.0 mi West 3.5 mph - N/A   Clear
11:56 AM 83.8 °F - 28.0 °F 13% 29.99 in 10.0 mi Calm Calm - N/A   Clear
12:56 PM 88.2 °F - 27.7 °F 11% 29.95 in 10.0 mi Calm Calm - N/A   Clear
1:56 PM 90.0 °F - 29.3 °F 11% 29.92 in 10.0 mi Calm Calm - N/A   Clear
2:56 PM 90.0 °F - 29.3 °F 11% 29.90 in 10.0 mi Calm Calm - N/A   Clear
3:56 PM 90.0 °F 87.9 °F 55.0 °F 30% 29.88 in 10.0 mi Variable 3.5 mph - N/A   Clear
4:56 PM 88.9 °F 86.7 °F 53.4 °F 30% 29.88 in 10.0 mi Variable 6.9 mph - N/A   Clear
5:56 PM 86.5 °F 85.6 °F 57.9 °F 38% 29.87 in 10.0 mi Variable 6.9 mph - N/A   Clear
6:56 PM 78.8 °F - 66.0 °F 65% 29.88 in 10.0 mi Calm Calm - N/A   Clear
7:56 PM 77.4 °F - 67.5 °F 71% 29.89 in 10.0 mi Calm Calm - N/A   Clear
8:56 PM 71.6 °F - 32.4 °F 24% 29.89 in 10.0 mi Variable 6.9 mph - N/A   Clear
9:56 PM 67.3 °F - 32.4 °F 27% 29.90 in 10.0 mi Calm Calm - N/A   Clear
10:56 PM 67.1 °F - 26.6 °F 22% 29.89 in 10.0 mi Calm Calm - N/A   Clear
11:56 PM - - - N/A% 29.89 in - North - - N/A   Unknown